Regional Weather Roundup
Issued by NWS Newport/Morehead, NC

Home | Current Version | Previous Version | Text Only | Print | Product List | Glossary On
Versions: 1 2 3 4 5 6 7 8 9 10 11 12 13 14 15 16 17 18 19 20 21 22 23 24 25 26 27 28 29 30 31 32 33 34 35 36 37 38 39 40 41 42 43 44 45 46 47 48 49 50
000
ASUS42 KMHX 240325
RWRMHX
WEATHER ROUNDUP FOR EASTERN NORTH CAROLINA
NATIONAL WEATHER SERVICE NEWPORT/MOREHEAD CITY NC
1100 PM EDT SAT SEP 23 2017

NOTE: "FAIR" INDICATES FEW OR NO CLOUDS BELOW 12,000 FEET
WITH NO SIGNIFICANT WEATHER AND/OR OBSTRUCTIONS TO VISIBILITY

NCZ015>017-031-032-045>047-102-103-240400-
NORTH COAST

CITY           SKY/WX    TMP DP  RH WIND       PRES   REMARKS
EDENTON        PTCLDY    72  68  89 CALM      30.06F
ELIZABETH CITY PTCLDY    72  70  93 NE8       30.07R
KITTY HAWK     CLEAR     69  65  84 CALM      30.04S
MANTEO         CLEAR     71  66  87 NE8       30.05S

$$

NCZ045>047-081-094-103-104-240400-
CENTRAL COAST

CITY           SKY/WX    TMP DP  RH WIND       PRES   REMARKS
FRISCO         CLEAR     72  68  87 NE7       30.04R

$$

NCZ095-097-098-100-101-240400-
SOUTHERN COAST

CITY           SKY/WX    TMP DP  RH WIND       PRES   REMARKS
BEAUFORT       PTCLDY    74  70  87 NE7       30.03S
CEDAR ISLAND   NOT AVBL
JACKSONVILLE   PTCLDY    75  70  84 E7        30.03S
PINEY ISLAND     N/A    N/A N/A N/A NE14      30.03F
WILMINGTON     CLEAR     71  69  93 NE3       30.02S


$$

NCZ011>013-027>030-043-044-078>080-089-090>093-098-240400-
COASTAL PLAIN

CITY           SKY/WX    TMP DP  RH WIND       PRES   REMARKS
AHOSKIE        PTCLDY    67  67  98 CALM      30.06F
CLINTON        PTCLDY    73  68  84 CALM      30.04S
ELIZABETHTOWN  NOT AVBL
GOLDSBORO      PTCLDY    72  70  95 E6        30.03S
GREENVILLE     PTCLDY    70  68  94 CALM      30.07S
HAVELOCK       PTCLDY    75  70  84 NE9       30.05R
KENANSVILLE    PTCLDY    68  66  94 CALM      30.05R
KINSTON        PTCLDY    71  67  85 CALM      30.06R
NEW BERN       PTCLDY    73  69  87 E5        30.05S
RICHLANDS      PTCLDY    69  67  93 CALM      30.05R
ROCKY MOUNT    PTCLDY    69  66  90 CALM      30.06S
WASHINGTON     CLEAR     70  66  89 CALM      30.05S
WHITEVILLE     PTCLDY    70  67  92 CALM      30.03S

$$

AMZ130-135-150-152-154-156-158-170-250-252-270-ANZ085-086-088-633-658-670-240400-
MARINE OBSERVATIONS

STATION/POSITION TIME  TEMP    WIND        PRES    WAVE   SWELL
                       AIR SEA DIR/SP/G            HT/PER HT/PER
                 (UTC) (F)     (DEG/KT/KT) (MB)    (FT/S) (FT/S)
CHESAPEAKE LIGHT NOT AVBL
64 E VA BEACH    0250   69 70   40/  4/  6 1018.2    9/12  10/12
DUCK             0300   73 77   40/ 10/ 11 1017.3
2 E DUCK         0300      76                N/A     5/15   3/15
OREGON INLET     0300   72 78   20/ 11/ 14 1017.2
13E OREGON INLT  0248      74                N/A     6/11   7/11
HATTERAS CG      0300   73 79   50/  7/ 11 1017.2
DIAMOND BUOY     0250   73 75   40/ 16/ 17 1016.7    7/11   7/11
CAPE LOOKOUT     0300   76      50/ 16/ 17 1016.7
BEAUFORT LAB     0300   75 77   50/  5/  8 1016.4
30 SE NEW RVR IN 0308   78      70/ 14/ 17 1016.0
30 SE NEW RVR IN NOT AVBL
27 SE WRIGHTSVLE 0308   79 80   70/ 16/ 21 1016.1
5 SE WRIGHTSVLE  0308   78 79   70/ 12/ 17 1016.1
225 S CAPE HAT   0250   79 80   50/ 21/ 25 1012.7   15/14  13/14
41 SE CHARLESTON 0310   80 82   60/ 14/ 17 1014.5

$$




USA.gov is the U.S. government's official web portal to all federal, state and local government web resources and services.